Location: Newark
(34.3481°N, 134.0494°E)
Time: 00:32:33
(UTC+00:00)

Vanguard 3 - Pass Details

Date: 19 January 2020
Orbit: 508 x 3263 km, 33.3° (Epoch: 23 February)

Event Time Altitude Azimuth Distance (km) Brightness Sun altitude
Rises 10:35:52 0° 247° (WSW) 7,224 13.1 -27.8°
Reaches altitude 10° 10:40:53 10° 246° (WSW) 6,135 12.4 -28.8°
Maximum altitude 10:59:44 75° 165° (SSE) 2,559 9.4 -32.7°
Enters shadow 11:03:22 57° 100° (E) 2,579 9.2 -33.4°
